JCSAT-17

Last updated on Wed Oct 29 2025 00:02:50 GMT+0000 (Coordinated Universal Time)

1 45245U 20013A 25301.49909609 -.00000309 00000+0 00000+0 0 9994 2 45245 5.4116 354.5422 0003304 215.0700 143.1704 1.00270349 20906
UTC large
Height (km)
Speed (km/s)
/
Latitude / Longitude
Inclination (degrees)
Orbital Period (minutes)
Azimuth
Elevation
Range (km)
Doppler Factor

Next 0 passes for location: London (51.5072 / 0.1276)

Sorry there are no passes over London.